User: anonymous   Login
Location: Luz Observatory
(34.5000°N, 117.2833°W)
Time: 18:25:07
(UTC-08:00)
Language:

Okean 3 Rocket - Orbit

View from above orbital plane
View from above orbital plane
View from above satellite
View from above satellite

Ground track
Ground track

The orbit data is extracted from the following two-line orbital elements,

1 21398U 91039B   15064.14031594  .00000506  00000-0  64539-4 0  9990
2 21398 082.5213 283.3895 0022581 042.3663 084.0586 14.79396390280435
Epoch (UTC): 05 March 2015 03:22:03
Eccentricity: 0.0022581
inclination: 82.5213°
perigee height: 615 km
apogee height: 647 km
right ascension of ascending node: 283.3895°
argument of perigee: 42.3663°
revolutions per day: 14.79396390
mean anomaly at epoch: 84.0586°
orbit number at epoch: 28043

The dashed part of the orbit path shows where the satellite is in the earth's shadow,  

DLR